Вернуться в каталог

STARLINK-38103

АктивенСвязьVLEO
NORAD 100022·PAYLOAD·🇺🇸 United States

Запущен Jul 14, 2026 с Vandenberg Space Force Base

Loading…

Ближайшие Пролёты (ближайшие 24 часа)

TLE

СвежийSource: Space-Track

Эпоха: Sep 14, 2026, 15:13 UTC

1 A0022U 26160X   26257.63447466 -.00059920  00000-0 -44656-3 0  9996
2 A0022  70.0015 211.2936 0003759 252.6520 107.4267 15.72621058 11072

Отслеживайте STARLINK-38103 в реальном времени с AllMySat

Download on the App Store